Regional Weather Roundup
Issued by NWS Goodland, KS

Home | Current Version | Previous Version | Text Only | Print | Product List | Glossary Off
Versions: 1 2 3 4 5 6 7 8 9 10 11 12 13 14 15 16 17 18 19 20 21 22 23 24 25 26 27 28 29 30 31 32 33 34 35 36 37 38 39 40 41 42 43 44 45 46 47 48 49 50

000
ASUS43 KGLD 031659
RWRGLD

GOODLAND FORECAST AREA HOURLY WEATHER ROUNDUP
NATIONAL WEATHER SERVICE GOODLAND KS
1100 AM MDT MON AUG 03 2015

...OFFICIAL OBSERVATIONS...

CITY           SKY/WX    TMP DP  RH WIND       PRES   REMARKS
GOODLAND KS    MOSUNNY   86  59  39 SE10      30.03S
HILL CITY KS   MOSUNNY   87  67  51 NE8       29.99R
IMPERIAL NEB   PTSUNNY   83  61  47 E10       30.02S
MCCOOK NEB     MOSUNNY   84  67  56 E13       30.00S
AKRON CO       CLOUDY    79  63  57 SE9       30.09R
BURLINGTON CO  PTSUNNY   84  59  42 E8        30.06S
LIMON CO       CLOUDY    77  55  46 S3        30.13R
$$

...UNOFFICIAL OBSERVATIONS...

CITY           SKY/WX    TMP DP  RH WIND       PRES   REMARKS
COLBY KS       SUNNY     88  66  48 SE7       30.03R
NORTON KS      SUNNY     82  64  54 NE8       29.99S
SHARON SPRINGS   N/A     85  67  54 E7          N/A
KIT CARSON CO    N/A     83  63  50 MISG        N/A
YUMA CO          N/A     77  66  69 SE5         N/A
$$


USA.gov is the U.S. government's official web portal to all federal, state and local government web resources and services.